• In Spain
  • List of Countries
  • For 7 days
  • Water Temperature
  • Satellite Maps
  • Weather Map
  • Weather Widgets
  • user-avatar
    Login

    Hourly Weather Baranovichi

    Today, 21 October, Sunday

    Time Temperature Precipitation Wind Pressure Humidity
    00:00 +8°C° 0 mm 1 mps 751 mmHg 74%
    01:00 +8°C° 0 mm 1 mps 751 mmHg 74%
    02:00 +7°C° 0 mm 1 mps 751 mmHg 75%
    03:00 +6°C° 0 mm 2 mps 751 mmHg 76%
    04:00 +6°C° 0 mm 2 mps 751 mmHg 77%
    05:00 +6°C° 0 mm 2 mps 751 mmHg 78%
    06:00 +6°C° 0 mm 2 mps 752 mmHg 78%
    07:00 +6°C° 0 mm 2 mps 752 mmHg 79%
    08:00 +6°C° 0 mm 2 mps 753 mmHg 79%
    09:00 +7°C° 0 mm 2 mps 753 mmHg 73%
    10:00 +8°C° 0 mm 2 mps 753 mmHg 67%
    11:00 +10°C° 0 mm 2 mps 753 mmHg 60%
    12:00 +10°C° 0 mm 2 mps 753 mmHg 59%
    13:00 +12°C° 0 mm 2 mps 753 mmHg 57%
    14:00 +12°C° 0 mm 2 mps 753 mmHg 55%
    15:00 +10°C° 0 mm 2 mps 753 mmHg 59%
    16:00 +10°C° 0 mm 1 mps 753 mmHg 63%
    17:00 +9°C° 0 mm 1 mps 753 mmHg 67%
    18:00 +8°C° 0 mm 1 mps 753 mmHg 71%
    19:00 +8°C° 0 mm 1 mps 753 mmHg 74%
    20:00 +7°C° 0 mm 1 mps 754 mmHg 78%
    21:00 +6°C° 0 mm 1 mps 754 mmHg 80%
    22:00 +6°C° 0 mm 1 mps 754 mmHg 81%
    23:00 +5°C° 0 mm 0 mps 754 mmHg 83%

    Tomorrow, 22 October, Monday

    Time Temperature Precipitation Wind Pressure Humidity
    00:00 +5°C° 0 mm 0 mps 754 mmHg 84%
    01:00 +5°C° 0 mm 1 mps 754 mmHg 85%
    02:00 +5°C° 0 mm 1 mps 754 mmHg 86%
    03:00 +5°C° 0 mm 1 mps 753 mmHg 88%
    04:00 +5°C° 0 mm 1 mps 753 mmHg 89%
    05:00 +4°C° 0 mm 1 mps 753 mmHg 90%
    06:00 +5°C° 0 mm 1 mps 753 mmHg 89%
    07:00 +5°C° 0 mm 1 mps 753 mmHg 89%
    08:00 +5°C° 0 mm 1 mps 753 mmHg 89%
    09:00 +6°C° 0 mm 2 mps 752 mmHg 82%
    10:00 +7°C° 0 mm 2 mps 752 mmHg 75%
    11:00 +9°C° 0 mm 3 mps 752 mmHg 68%
    12:00 +10°C° 0 mm 3 mps 751 mmHg 65%
    13:00 +10°C° 0 mm 3 mps 751 mmHg 63%
    14:00 +11°C° 0 mm 4 mps 750 mmHg 61%
    15:00 +10°C° 0 mm 3 mps 749 mmHg 65%
    16:00 +9°C° 0 mm 3 mps 749 mmHg 70%
    17:00 +8°C° 0 mm 3 mps 748 mmHg 74%
    18:00 +7°C° 0 mm 3 mps 748 mmHg 75%
    19:00 +7°C° 0 mm 3 mps 748 mmHg 77%
    20:00 +5°C° 0 mm 3 mps 748 mmHg 78%
    21:00 +7°C° 0.4 mm 3 mps 747 mmHg 81%
    22:00 +6°C° 0.4 mm 4 mps 747 mmHg 83%
    23:00 +6°C° 0.4 mm 4 mps 747 mmHg 85%

    Day after tomorrow, 23 October, Tuesday

    Time Temperature Precipitation Wind Pressure Humidity
    00:00 +6°C° 0.4 mm 4 mps 747 mmHg 87%
    01:00 +6°C° 0.4 mm 4 mps 746 mmHg 88%
    02:00 +5°C° 0.4 mm 4 mps 746 mmHg 90%
    03:00 +4°C° 0 mm 3 mps 746 mmHg 91%
    04:00 +3°C° 0 mm 3 mps 746 mmHg 92%
    05:00 +3°C° 0 mm 3 mps 745 mmHg 94%
    06:00 +3°C° 0 mm 3 mps 745 mmHg 92%
    07:00 +2°C° 0 mm 3 mps 745 mmHg 91%
    08:00 +2°C° 0 mm 3 mps 745 mmHg 89%
    09:00 +4°C° 0 mm 3 mps 745 mmHg 83%
    10:00 +5°C° 0 mm 3 mps 744 mmHg 76%
    11:00 +6°C° 0 mm 4 mps 744 mmHg 70%
    12:00 +6°C° 0.1 mm 5 mps 742 mmHg 68%
    13:00 +7°C° 0.1 mm 5 mps 741 mmHg 67%
    14:00 +7°C° 0.1 mm 6 mps 740 mmHg 66%
    15:00 +5°C° 0 mm 6 mps 739 mmHg 68%
    16:00 +5°C° 0 mm 6 mps 738 mmHg 71%
    17:00 +4°C° 0 mm 6 mps 736 mmHg 73%
    18:00 +4°C° 0.2 mm 7 mps 735 mmHg 75%
    19:00 +4°C° 0.2 mm 8 mps 733 mmHg 77%
    20:00 +4°C° 0.2 mm 8 mps 732 mmHg 78%
    21:00 +4°C° 1.2 mm 8 mps 730 mmHg 80%
    22:00 +3°C° 1.2 mm 9 mps 729 mmHg 82%
    23:00 +3°C° 1.2 mm 9 mps 727 mmHg 85%

    24 October, Wednesday

    Time Temperature Precipitation Wind Pressure Humidity
    00:00 +5°C° 0.6 mm 8 mps 726 mmHg 86%
    01:00 +5°C° 0.6 mm 7 mps 725 mmHg 87%
    02:00 +7°C° 0.6 mm 6 mps 723 mmHg 88%
    03:00 +5°C° 0.5 mm 6 mps 723 mmHg 88%
    04:00 +5°C° 0.5 mm 6 mps 722 mmHg 89%
    05:00 +4°C° 0.5 mm 6 mps 722 mmHg 89%
    06:00 +4°C° 0.8 mm 7 mps 722 mmHg 85%
    07:00 +4°C° 0.8 mm 7 mps 723 mmHg 80%
    08:00 +2°C° 0.8 mm 8 mps 723 mmHg 76%
    09:00 +2°C° 0 mm 8 mps 724 mmHg 72%
    10:00 +2°C° 0 mm 8 mps 724 mmHg 67%
    11:00 +3°C° 0 mm 7 mps 724 mmHg 63%
    12:00 +4°C° 0 mm 6 mps 724 mmHg 64%
    13:00 +5°C° 0 mm 5 mps 724 mmHg 66%
    14:00 +5°C° 0 mm 4 mps 724 mmHg 68%
    15:00 +5°C° 0 mm 4 mps 725 mmHg 71%
    16:00 +4°C° 0 mm 4 mps 725 mmHg 74%
    17:00 +4°C° 0 mm 3 mps 726 mmHg 77%
    18:00 +4°C° 0 mm 4 mps 727 mmHg 79%
    19:00 +3°C° 0 mm 5 mps 728 mmHg 81%
    20:00 +3°C° 0 mm 5 mps 729 mmHg 84%
    21:00 +3°C° 0.1 mm 6 mps 729 mmHg 82%
    22:00 +3°C° 0.1 mm 7 mps 730 mmHg 80%
    23:00 +4°C° 0.1 mm 7 mps 730 mmHg 78%

    25 October, Thursday

    Time Temperature Precipitation Wind Pressure Humidity
    00:00 +4°C° 0.1 mm 8 mps 731 mmHg 78%
    01:00 +2°C° 0.1 mm 8 mps 731 mmHg 78%
    02:00 +2°C° 0.1 mm 8 mps 732 mmHg 77%
    03:00 +2°C° 0 mm 8 mps 732 mmHg 76%
    04:00 +2°C° 0 mm 8 mps 732 mmHg 76%
    05:00 +1°C° 0 mm 8 mps 733 mmHg 75%
    06:00 +1°C° 0 mm 8 mps 733 mmHg 76%
    07:00 +2°C° 0 mm 7 mps 733 mmHg 77%
    08:00 +2°C° 0 mm 7 mps 734 mmHg 79%
    09:00 +2°C° 0 mm 7 mps 734 mmHg 75%
    10:00 +3°C° 0 mm 7 mps 734 mmHg 72%
    11:00 +4°C° 0 mm 7 mps 734 mmHg 69%
    12:00 +4°C° 0 mm 6 mps 733 mmHg 67%
    13:00 +4°C° 0 mm 6 mps 733 mmHg 64%
    14:00 +5°C° 0 mm 6 mps 733 mmHg 62%
    15:00 +5°C° 0.1 mm 5 mps 733 mmHg 66%
    16:00 +4°C° 0.1 mm 4 mps 732 mmHg 70%
    17:00 +4°C° 0.1 mm 4 mps 732 mmHg 75%
    18:00 +4°C° 0.1 mm 4 mps 732 mmHg 78%
    19:00 +3°C° 0.1 mm 3 mps 733 mmHg 82%
    20:00 +3°C° 0.1 mm 3 mps 733 mmHg 86%
    21:00 +3°C° 0 mm 3 mps 733 mmHg 88%
    22:00 +3°C° 0 mm 3 mps 733 mmHg 89%
    23:00 +3°C° 0 mm 3 mps 734 mmHg 91%

    26 October, Friday

    Time Temperature Precipitation Wind Pressure Humidity
    00:00 +3°C° 0 mm 3 mps 734 mmHg 92%
    01:00 +1°C° 0 mm 4 mps 734 mmHg 93%
    02:00 +1°C° 0 mm 4 mps 734 mmHg 94%
    03:00 +1°C° 0 mm 4 mps 735 mmHg 93%
    04:00 +3°C° 0 mm 4 mps 735 mmHg 92%
    05:00 +2°C° 0 mm 5 mps 735 mmHg 90%
    06:00 +2°C° 0 mm 5 mps 736 mmHg 90%
    07:00 +2°C° 0 mm 5 mps 736 mmHg 89%
    08:00 +1°C° 0 mm 5 mps 736 mmHg 89%
    09:00 +3°C° 0 mm 5 mps 737 mmHg 81%
    10:00 +5°C° 0 mm 5 mps 737 mmHg 73%
    11:00 +5°C° 0 mm 6 mps 738 mmHg 65%
    12:00 +7°C° 0 mm 5 mps 738 mmHg 63%
    13:00 +7°C° 0 mm 5 mps 738 mmHg 61%
    14:00 +8°C° 0 mm 4 mps 738 mmHg 59%
    15:00 +7°C° 0 mm 4 mps 738 mmHg 65%
    16:00 +7°C° 0 mm 3 mps 739 mmHg 71%
    17:00 +6°C° 0 mm 2 mps 739 mmHg 78%
    18:00 +6°C° 0 mm 2 mps 739 mmHg 80%
    19:00 +5°C° 0 mm 3 mps 739 mmHg 83%
    20:00 +4°C° 0 mm 3 mps 739 mmHg 85%
    21:00 +5°C° 0 mm 3 mps 739 mmHg 86%
    22:00 +5°C° 0 mm 4 mps 738 mmHg 88%
    23:00 +5°C° 0 mm 4 mps 738 mmHg 89%
    Show more